Location: Oulou
(10.7667°N, 12.5167°W)
Time: 14:59:37
(UTC+00:00)

SWIFT - Pass Details

Date: 20 September 2019
Orbit: 545 x 561 km, 20.6° (Epoch: 16 October)

Event Time Altitude Azimuth Distance (km) Brightness Sun altitude
Rises 20:31:01 0° 270° (W) 2,703 7.2 -26.2°
Reaches altitude 10° 20:33:40 10° 255° (WSW) 1,807 5.8 -26.8°
Enters shadow 20:36:28 22° 214° (SW) 1,209 4.3 -27.5°
